[[{"header":{"parameterUnit":"m.s-1","parameterCategory":1,"la1":30.2991,"la2":30.254,"lo1":-89.0895,"lo2":-89.0444,"dy":0.0017,"dx":0.0017,"nx":28,"ny":28,"refTime":"2024-03-08T03:00:00:Z","depth":0,"parameterNumber":2,"parameterNumberName":"U-component_of_WINDS"},"data":[0,0,0,0,0,0,0,0,0,0,0,0,0,0,0,0,0,0,0,0,0,0,0,0,0,0,0,0,0,0,0,0,0,0,0,0,0,0,0,0,0,0,0,0,0,0,0,0,0,0,0,0,0,0,0,0,0,0,-3.3737,-3.3738,0,-3.382,-3.3821,-3.3821,-3.3775,-3.3773,-3.3771,-3.3769,-3.3853,-3.3858,-3.3862,0,0,0,0,0,0,0,0,0,0,0,0,0,-3.3543,-3.3546,-3.3737,-3.3738,-3.3739,-3.3819,-3.3821,-3.3822,-3.3776,-3.3773,-3.377,-3.3768,-3.3852,-3.3857,-3.3862,0,0,0,0,0,0,0,0,0,0,0,0,0,-3.3626,-3.3548,-3.3737,-3.3726,-3.3726,-3.3819,-3.3821,-3.3822,-3.3776,-3.3773,-3.3769,-3.3766,-3.385,-3.3857,-3.3863,-3.3972,0,0,-3.3883,-3.3886,0,0,0,0,0,0,0,0,-3.3622,-3.3633,-3.3727,-3.3727,-3.3727,-3.3784,-3.3783,-3.3872,-3.3777,-3.3757,-3.3768,-3.3765,-3.3833,-3.3841,-3.3864,-3.3976,-3.398,-3.3884,-3.3888,-3.3891,-3.3893,0,0,0,0,0,0,0,-3.3616,-3.363,-3.377,-3.3728,-3.3728,-3.3718,-3.3726,-3.38,-3.3813,-3.3759,-3.3755,-3.3766,-3.3832,-3.3858,-3.3865,-3.3981,-3.3884,-3.3889,-3.3894,-3.3896,-3.4189,-3.4193,0,0,0,0,0,0,-3.3611,-3.3625,-3.3767,-3.3772,-3.3665,-3.3724,-3.3733,-3.3769,-3.3812,-3.3816,-3.3769,-3.3763,-3.3848,-3.3858,-3.3868,-3.3999,-3.3891,-3.3897,-3.3901,-3.4185,-3.419,-3.4194,0,0,0,0,0,0,-3.3607,-3.3624,-3.3764,-3.3698,-3.3715,-3.3731,-3.3772,-3.3772,-3.3797,-3.382,-3.3822,-3.3792,-3.3846,-3.3859,-3.3947,-3.4002,-3.39,-3.3906,-3.4181,-3.4187,-3.4192,-3.4262,0,0,0,0,0,0,-3.3601,-3.3622,-3.3663,-3.3699,-3.3719,-3.3841,-3.3775,-3.3776,-3.3809,-3.3803,-3.3842,-3.3845,-3.3844,-3.3938,-3.3954,-3.4009,-3.3911,-3.4176,-3.4184,-3.419,-3.4255,-3.427,-3.4282,0,0,0,0,0,-3.3594,-3.368,-3.3666,-3.3683,-3.377,-3.3844,-3.3855,-3.3852,-3.3813,-3.3855,-3.387,-3.3844,-3.3994,-3.3947,-3.3965,-3.4023,-3.4173,-3.4181,-3.419,-3.4249,-3.4267,-3.4282,0,0,0,0,0,0,-3.3649,-3.3684,-3.3669,-3.3768,-3.3804,-3.3836,-3.3888,-3.387,-3.3917,-3.391,-3.3904,-3.3913,-3.4005,-3.4023,-3.397,-3.4132,-3.4077,-3.409,-3.4116,-3.4133,-3.4147,-3.414,-3.3916,0,0,0,0,0,-3.3673,-3.373,-3.3757,-3.3842,-3.3861,-3.3872,-3.3904,-3.3899,-3.3935,-3.395,-3.3971,-3.4008,-3.4063,-3.4099,-3.4151,-3.4258,-3.4267,-3.4307,-3.4321,-3.4332,-3.4342,-3.4401,-3.442,-3.4223,-3.4223,-3.4222,0,0,-3.3722,-3.3748,-3.3784,-3.3854,-3.3881,-3.394,-3.3885,-3.3949,-3.3994,-3.3959,-3.4044,-3.4061,-3.4102,-3.42,-3.4245,-3.4218,-3.4399,-3.4343,-3.4352,-3.4356,-3.4412,-3.4431,-3.4448,-3.4229,-3.4227,-3.4227,0,0,-3.3842,-3.3868,-3.3942,-3.397,-3.4012,-3.4019,-3.4037,-3.4073,-3.4083,-3.4168,-3.4144,-3.4198,-3.4293,-3.4323,-3.4351,-3.4486,-3.4464,-3.4504,-3.4574,-3.4631,-3.4647,-3.4661,-3.4709,-3.4726,-3.4514,-3.4515,-3.4515,0,-3.3898,-3.3986,-3.3982,-3.4049,-3.4081,-3.4054,-3.4129,-3.4158,-3.4214,-3.4237,-3.4207,-3.4327,-3.4352,-3.4458,-3.4491,-3.4515,-3.4536,-3.4498,-3.4645,-3.4659,-3.4671,-3.4718,-3.4736,-3.4519,-3.4518,-3.4518,-3.4518,0,-3.4053,-3.4115,-3.417,-3.4226,-3.4264,-3.4335,-3.4343,-3.4382,-3.4375,-3.4386,-3.4473,-3.4504,-3.4562,-3.4587,-3.458,-3.4693,-3.4675,-3.4645,-3.459,-3.4695,-3.4738,-3.4756,-3.4525,-3.4524,-3.4522,-3.4521,0,0,-3.4207,-3.4262,-3.4282,-3.4307,-3.4353,-3.4401,-3.4472,-3.4529,-3.4564,-3.4605,-3.4664,-3.4747,-3.472,-3.4752,-3.4749,-3.48,-3.4906,-3.4764,-3.4765,-3.4789,-3.5032,-3.5054,-3.5074,-3.4892,-3.4896,-3.4898,-3.5029,0,-3.4329,-3.4453,-3.4452,-3.4567,-3.4624,-3.4601,-3.4663,-3.4698,-3.4711,-3.4763,-3.4777,-3.4836,-3.4796,-3.4816,-3.4865,-3.4882,-3.4954,-3.4873,-3.4948,-3.4951,-3.4937,-3.5096,-3.5119,-3.524,-3.5046,-3.5049,-3.5051,0,-3.4488,-3.4535,-3.4655,-3.4694,-3.4718,-3.4773,-3.4827,-3.4877,-3.4917,-3.4923,-3.496,-3.495,-3.5023,-3.4968,-3.5069,-3.5014,-3.5045,-3.5059,-3.5063,-3.5069,-3.5006,-3.5106,-3.5279,-3.5297,-3.5077,-3.5075,-3.5073,0,-3.4588,-3.4681,-3.4765,-3.4788,-3.4836,-3.4875,-3.4897,-3.4934,-3.4969,-3.5017,-3.504,-3.5095,-3.5126,-3.5169,-3.5175,-3.5134,-3.5277,-3.5222,-3.5285,-3.5285,-3.5314,-3.5312,-3.5494,-3.5337,-3.5336,-3.5336,-3.5336,0,-3.4724,-3.4798,-3.4811,-3.4863,-3.4946,-3.4946,-3.5029,-3.5047,-3.5081,-3.5136,-3.512,-3.5173,-3.5177,-3.5232,-3.5237,-3.5321,-3.5335,-3.5342,-3.5342,-3.5343,-3.5342,-3.5362,-3.5353,-3.5341,-3.534,-3.5339,-3.5338,0,-3.4848,-3.486,-3.495,-3.4989,-3.5,-3.506,-3.5093,-3.5143,-3.5155,-3.5226,-3.5243,-3.5263,-3.5326,-3.5337,-3.5411,-3.5415,-3.5515,-3.5507,-3.5501,-3.55,-3.5562,-3.5556,-3.5762,-3.5789,-3.5615,-3.5617,-3.5618,0,-3.4934,-3.499,-3.5036,-3.5072,-3.5096,-3.5154,-3.519,-3.5194,-3.5232,-3.5284,-3.5328,-3.5391,-3.544,-3.5544,-3.5565,-3.5623,-3.5615,-3.5684,-3.5624,-3.5623,-3.5616,-3.5612,-3.5618,-3.5695,-3.5697,-3.5698,-3.57,0,-3.5084,-3.5087,-3.514,-3.5196,-3.524,-3.5284,-3.5325,-3.5356,-3.5365,-3.541,-3.5475,-3.5514,-3.5591,-3.5653,-3.5711,-3.5734,-3.5719,-3.5719,-3.5736,-3.5737,-3.5731,-3.5735,-3.5532,-3.5713,-3.5712,-3.5711,-3.571,-3.571,-3.5191,-3.5241,-3.5281,-3.5341,-3.5373,-3.5413,-3.5462,-3.5481,-3.5536,-3.5599,-3.5598,-3.567,-3.5711,-3.5787,-3.5815,-3.5872,-3.5849,-3.5875,-3.5881,-3.5887,-3.5893,-3.5723,-3.5882,-3.5882,-3.5882,-3.5881,-3.5881,0,-3.534,-3.5365,-3.542,-3.548,-3.5527,-3.551,-3.5556,-3.5597,-3.566,-3.57,-3.575,-3.5826,-3.5887,-3.5914,-3.5975,-3.6015,-3.601,-3.6031,-3.6027,-3.6033,-3.5909,-3.5888,-3.6034,-3.6034,-3.6034,-3.6034,-3.6034,-3.6034,-3.5423,-3.5506,-3.5515,-3.5616,-3.5641,-3.5711,-3.5739,-3.5776,-3.5808,-3.5893,-3.5944,-3.5962,-3.5997,-3.6061,-3.6116,-3.6123,-3.6146,-3.617,-3.6174,-3.6057,-3.6041,-3.6027,-3.6006,-3.6175,-3.6175,-3.6292,-3.6293,-3.6294]},{"header":{"parameterUnit":"m.s-1","parameterCategory":1,"la1":30.2991,"la2":30.254,"lo1":-89.0895,"lo2":-89.0444,"dy":0.0017,"dx":0.0017,"nx":28,"ny":28,"refTime":"2024-03-08T03:00:00:Z","depth":0,"parameterNumber":3,"parameterNumberName":"V-component_of_WINDS"},"data":[0,0,0,0,0,0,0,0,0,0,0,0,0,0,0,0,0,0,0,0,0,0,0,0,0,0,0,0,0,0,0,0,0,0,0,0,0,0,0,0,0,0,0,0,0,0,0,0,0,0,0,0,0,0,0,0,0,0,1.441,1.4411,0,1.4491,1.4492,1.4493,1.4518,1.4518,1.4517,1.4517,1.4597,1.46,1.4602,0,0,0,0,0,0,0,0,0,0,0,0,0,1.4278,1.428,1.441,1.4411,1.4412,1.4491,1.4492,1.4493,1.4518,1.4518,1.4517,1.4517,1.4596,1.4599,1.4602,0,0,0,0,0,0,0,0,0,0,0,0,0,1.4344,1.4281,1.441,1.4434,1.4437,1.4491,1.4492,1.4493,1.4518,1.4518,1.4517,1.4517,1.4595,1.4599,1.4603,1.4637,0,0,1.4614,1.4616,0,0,0,0,0,0,0,0,1.434,1.4349,1.443,1.4433,1.4436,1.4494,1.4475,1.4541,1.4518,1.4488,1.4517,1.4516,1.4563,1.4569,1.4586,1.4641,1.4644,1.4614,1.4617,1.4618,1.4619,0,0,0,0,0,0,0,1.4336,1.4346,1.4442,1.4431,1.4435,1.4441,1.445,1.4487,1.4527,1.449,1.4492,1.4502,1.4565,1.4582,1.4588,1.4645,1.4614,1.4618,1.462,1.4621,1.4735,1.4736,0,0,0,0,0,0,1.4327,1.4342,1.444,1.4445,1.4386,1.4444,1.4454,1.4476,1.4527,1.4534,1.4502,1.4502,1.4576,1.4583,1.4591,1.4636,1.4618,1.4622,1.4624,1.4734,1.4735,1.4736,0,0,0,0,0,0,1.4324,1.4336,1.4436,1.4394,1.4407,1.4447,1.4471,1.4478,1.4495,1.4536,1.4543,1.4512,1.4576,1.4586,1.4626,1.4639,1.4623,1.4627,1.4733,1.4734,1.4735,1.4726,0,0,0,0,0,0,1.432,1.4335,1.4348,1.4394,1.4409,1.447,1.4472,1.448,1.4502,1.4503,1.4548,1.4554,1.4576,1.462,1.463,1.4644,1.463,1.4732,1.4734,1.4735,1.4725,1.4726,1.4727,0,0,0,0,0,1.4316,1.4341,1.4348,1.436,1.4427,1.4471,1.448,1.4505,1.4503,1.4517,1.4543,1.4553,1.4636,1.4624,1.4635,1.4651,1.4731,1.4733,1.4735,1.4724,1.4726,1.4727,0,0,0,0,0,0,1.4294,1.4347,1.4356,1.4397,1.443,1.4475,1.4494,1.4506,1.4538,1.4538,1.4567,1.4577,1.4616,1.4637,1.4623,1.4688,1.4684,1.4688,1.4672,1.4674,1.4676,1.467,1.4633,0,0,0,0,0,1.4294,1.4326,1.4371,1.4402,1.4418,1.4453,1.4473,1.449,1.4524,1.4538,1.4567,1.46,1.4634,1.4655,1.4688,1.4728,1.4739,1.4744,1.4745,1.4746,1.4749,1.4774,1.4778,1.4742,1.4742,1.4741,0,0,1.4294,1.4328,1.4346,1.4399,1.4426,1.4459,1.4464,1.4498,1.4523,1.4543,1.4584,1.4606,1.4645,1.4686,1.4705,1.4704,1.4762,1.4748,1.4749,1.4752,1.4777,1.478,1.4783,1.4743,1.4743,1.4742,0,0,1.4312,1.434,1.4371,1.4398,1.444,1.4463,1.447,1.4515,1.4531,1.4573,1.459,1.4619,1.4676,1.4703,1.4724,1.4755,1.4765,1.4764,1.4771,1.4795,1.4798,1.4801,1.4813,1.4817,1.4767,1.4767,1.4767,0,1.4307,1.4357,1.4384,1.4418,1.4442,1.4463,1.4495,1.452,1.457,1.4586,1.4584,1.4658,1.4685,1.4734,1.4742,1.4757,1.4768,1.476,1.4795,1.4798,1.4801,1.4814,1.4818,1.4767,1.4767,1.4767,1.4767,0,1.435,1.4384,1.4404,1.4454,1.4479,1.4512,1.4544,1.4567,1.4582,1.4606,1.4649,1.4682,1.4723,1.4736,1.475,1.4788,1.4786,1.479,1.4787,1.4804,1.4816,1.4821,1.4767,1.4767,1.4767,1.4767,0,0,1.4355,1.4421,1.4428,1.4452,1.45,1.4527,1.4561,1.4603,1.4622,1.4656,1.4686,1.4735,1.4739,1.4763,1.4781,1.4802,1.4826,1.4803,1.4805,1.4808,1.4871,1.4869,1.4874,1.4833,1.4834,1.4835,1.4869,0,1.438,1.4442,1.4469,1.4519,1.4552,1.4574,1.4604,1.4637,1.466,1.4692,1.4717,1.4752,1.4754,1.4769,1.4791,1.4818,1.4839,1.4816,1.4862,1.4863,1.4853,1.488,1.4878,1.4908,1.4874,1.4874,1.4875,0,1.4417,1.4453,1.4507,1.4554,1.4569,1.4595,1.4637,1.4666,1.4704,1.472,1.4748,1.4765,1.4802,1.4797,1.4849,1.4833,1.4853,1.487,1.4871,1.4877,1.4871,1.4888,1.4918,1.4923,1.4882,1.4882,1.4881,0,1.4417,1.4479,1.452,1.4539,1.4594,1.4613,1.4636,1.4674,1.4699,1.4735,1.4751,1.479,1.4812,1.4842,1.487,1.4863,1.492,1.4916,1.4934,1.4934,1.4946,1.4945,1.498,1.4957,1.4957,1.4956,1.4956,0,1.4443,1.4475,1.4522,1.4547,1.4584,1.4615,1.4651,1.4676,1.471,1.4741,1.4761,1.479,1.4824,1.4857,1.4879,1.492,1.4929,1.4943,1.4948,1.4942,1.494,1.4956,1.4955,1.4958,1.4957,1.4957,1.4957,0,1.4449,1.4481,1.4528,1.4577,1.459,1.4616,1.4658,1.4684,1.4709,1.4748,1.4758,1.4797,1.4838,1.4868,1.4919,1.4934,1.4978,1.4983,1.4966,1.4969,1.4986,1.4985,1.5034,1.5043,1.5012,1.5012,1.5012,0,1.4464,1.449,1.4543,1.4565,1.459,1.4625,1.4651,1.4682,1.4708,1.4755,1.4775,1.4817,1.4852,1.4915,1.4948,1.4988,1.4995,1.501,1.5001,1.4995,1.4998,1.4996,1.5,1.5011,1.5011,1.5012,1.5012,0,1.4487,1.4502,1.4539,1.4581,1.4612,1.4646,1.4681,1.4699,1.4736,1.4764,1.4806,1.4834,1.4888,1.493,1.4974,1.4998,1.5012,1.5014,1.5021,1.5015,1.5005,1.5012,1.497,1.5013,1.5013,1.5013,1.5013,1.5013,1.4499,1.4524,1.4566,1.4606,1.4637,1.467,1.4697,1.4726,1.4762,1.481,1.4826,1.487,1.4909,1.497,1.4995,1.503,1.503,1.5039,1.5042,1.5044,1.5044,1.4998,1.5038,1.5038,1.5038,1.5038,1.5038,0,1.4525,1.4553,1.459,1.464,1.4672,1.4683,1.4723,1.475,1.4788,1.4825,1.486,1.4909,1.495,1.4987,1.503,1.5051,1.5059,1.5062,1.5061,1.5067,1.5041,1.5031,1.5055,1.5055,1.5055,1.5055,1.5055,1.5055,1.4542,1.4586,1.4606,1.4666,1.4694,1.4738,1.476,1.4791,1.4821,1.4876,1.4911,1.4935,1.4972,1.5018,1.5057,1.5067,1.5082,1.5084,1.5095,1.507,1.5068,1.5066,1.5058,1.5087,1.5087,1.5119,1.5119,1.5119]}]]